Other Public Products
Issued by NWS Charleston, SC

Home | Current Version | Previous Version | Text Only | Print | Product List | Glossary On
Versions: 1 2 3 4 5 6 7 8 9 10 11 12 13 14 15 16 17 18 19 20 21 22 23 24 25 26 27 28 29 30 31 32 33 34 35 36 37 38 39 40 41 42 43 44 45 46 47 48 49 50
000
FPUS82 KCHS 250327
OPUCHS

TEST...KCHS/KSAV Gateway Observations...TEST
National Weather Service Charleston SC
1100 PM EDT MON APR 24 2017

NOTE: "fair" indicates few or no clouds below 12,000 feet with no
significant weather and/or obstructions to visibility.

SCZ050-WAZ558-NCZ071-TXZ119-213-PAZ071-DCZ001-FLZ074-172-MI076-
NYZ176-178-MAZ016-IL014-TNZ027-NJZ106-GAZ044-MD014-250400-

...Gateway Observations for Charleston International...

CITY           SKY/WX    TMP DP  RH WIND       PRES   REMARKS
Chas Airport   PTCLDY    60  57  89 W6        29.64S
Seattle        PTCLDY    51  46  83 SW8       29.84R
Charlotte      CLOUDY    54  51  90 N12       29.72R
Dallas DFW     PTCLDY    70  51  51 S12       29.65R
Dallas Love    PTCLDY    71  50  47 S14       29.67R
Philladelphia  LGT RAIN  53  43  68 NE10G23   30.07F
Wash National  CLOUDY    54  50  86 NE14      30.00F
Baltimore      CLOUDY    52  47  83 NE13      30.02F
Miami          CLEAR     74  63  68 W8        29.82R
Detroit        CLOUDY    56  39  53 E15G26    29.91F
Newark         CLOUDY    56  37  49 E6        30.13S
Laguardia      CLOUDY    52  45  77 NE12      30.13F
J F K          LGT RAIN  54  46  74 E13       30.14S
Boston Logan   CLOUDY    52  42  69 SE5       30.20R
Ft. Lauderdale CLEAR     73  62  68 W10       29.80R
Chicago O`Hare PTCLDY    54  35  48 CALM      29.77S
Chicago Midway PTCLDY    59  39  47 E8        29.77S
Houston Bush   MOCLDY    69  52  54 S9        29.77S
Houston Hobby  MOCLDY    66  54  65 S7        29.78S
Nashville      PTCLDY    59  56  89 CALM      29.77S
Atlanta        MOCLDY    61  58  90 N6        29.74R

$$

GAZ044-118-TXZ119-213-NCZ071-DCZ001-MDZ014-506-PAZ021-071-NJZ106-
NYZ176-178-MAZ106-OHZ011-021-055-MIZ076-KYZ091-ILZ014-INZ047-
MNZ060-ONZ431-250400-

...Gateway Observations for Savannah International...

CITY           SKY/WX    TMP DP  RH WIND       PRES   REMARKS
Savannah Arpt  PTCLDY    63  56  78 NW9       29.67F
Atlanta        MOCLDY    61  58  90 N6        29.74R
Charlotte      CLOUDY    54  51  90 N12       29.72R
Dallas DFW     PTCLDY    70  51  51 S12       29.65R
Houston Bush   MOCLDY    69  52  54 S9        29.77S
Wash National  CLOUDY    54  50  86 NE14      30.00F
Wash Dulles    CLOUDY    51  47  86 N9        30.01F
Baltimore      CLOUDY    52  47  83 NE13      30.02F
Philadelphia   LGT RAIN  53  43  68 NE10G23   30.07F
Newark         CLOUDY    56  37  49 E6        30.13S
Laguardia      CLOUDY    52  45  77 NE12      30.13F
J F K          LGT RAIN  54  46  74 E13       30.14S
Boston         CLOUDY    52  42  69 SE5       30.20R
Pittsburg      CLOUDY    54  45  71 E10       29.96F
Akron          CLOUDY    56  43  61 SE13G23   29.94F
Cleveland      LGT RAIN  60  43  53 SE14      29.95F
Cincinnati     CLOUDY    62  53  72 E9        29.82R
Columbus       MOCLDY    55  48  76 E9G16     29.87F
Detroit        CLOUDY    56  39  53 E15G26    29.91F
Chicago O`Hare PTCLDY    54  35  48 CALM      29.77S
Minneapolis    CLOUDY    66  31  27 S14       29.55S
Indianapolis   PTCLDY    65  51  60 SE14      29.77R
Toronto Canada PTCLDY    48  32  53 SE10G18   30.07F

$$




USA.gov is the U.S. government's official web portal to all federal, state and local government web resources and services.